Regional Weather Roundup
Issued by NWS

Home | Current Version | Previous Version | Graphics & Text | Print | Product List | Glossary On
Versions: 1 2 3 4 5 6 7 8 9 10 11 12 13 14 15 16 17 18 19 20 21 22 23 24 25 26 27 28 29 30 31 32 33 34 35 36 37 38 39 40 41 42 43 44 45 46 47 48 49 50
000
ASUS44 KMEG 181400
RWRTN
TENNESSEE HOURLY STATE WEATHER ROUNDUP
NATIONAL WEATHER SERVICE MEMPHIS TN
900 AM CDT SAT APR 18 2015

TNZ002-004-019-021-049-052-054-088>092-181500-
WEST TENNESSEE

CITY           SKY/WX    TMP DP  RH WIND       PRES   REMARKS
MEMPHIS INTL   CLOUDY    65  61  87 E8        29.96R
NWS MEMPHIS      N/A     64 N/A N/A MISG        N/A
JACKSON        PTSUNNY   63  61  93 E3        29.98S
DYERSBURG      PTSUNNY   63  52  67 CALM      29.98S
UNION CITY     CLOUDY    59  32  36 CALM      29.97F VSB 1/4
PARIS          CLOUDY    61  61 100 NE5       29.99S VSB 1/2
LEXINGTON      CLOUDY    61  61 100 NE3       29.98S
SAVANNAH       SUNNY     63  32  31 CALM      29.98S
$$

TNZ008-025-027-028-033-062-065-066-181500-
NORTH MIDDLE TENNESSEE

CITY           SKY/WX    TMP DP  RH WIND       PRES   REMARKS
NASHVILLE      CLOUDY    65  61  87 NE3       30.00F
CLARKSVILLE    PTSUNNY   65  61  87 E6        30.00S
COOKEVILLE     SUNNY     64  61  88 CALM      29.99F
CROSSVILLE     MOSUNNY   65  58  78 E6        30.03F
$$

TNZ061-075-076-078-094-096-097-181500-
SOUTH MIDDLE TENNESSEE

CITY           SKY/WX    TMP DP  RH WIND       PRES   REMARKS
FAYETTEVILLE   SUNNY     61  61 100 CALM      30.00R
TULLAHOMA      SUNNY     64  61  88 CALM      30.00F
WINCHESTER     SUNNY     66  61  82 CALM      29.99F
MCMINNVILLE    SUNNY     64  64 100 E6        30.00F
COLUMBIA       CLOUDY    59  32  36 CALM      29.98S VSB 3/4
SHELBYVILLE    CLOUDY    63  63 100 CALM      30.00F
$$

TNZ017-018-042-046-047-181500-
NORTHEAST TENNESSEE

CITY           SKY/WX    TMP DP  RH WIND       PRES   REMARKS
TRI CITIES     PTSUNNY   66  60  81 CALM      30.05F
ELIZABETHTON   MOSUNNY   64  57  77 CALM      30.05F
$$

TNZ012-013-036-069-073-074-181500-
CENTRAL EAST TENNESSEE

CITY           SKY/WX    TMP DP  RH WIND       PRES   REMARKS
KNOXVILLE      PTSUNNY   62  60  93 N6        30.01F FOG
OAK RIDGE      CLOUDY    62  59  90 VRB3      30.04S
GATLINBURG     PTSUNNY   64  61  88 CALM      30.02S
$$

TNZ083-085-099-181500-
SOUTHEAST TENNESSEE

CITY           SKY/WX    TMP DP  RH WIND       PRES   REMARKS
CHATTANOOGA    PTSUNNY   62  61  96 CALM      30.00F FOG
$$

SKY/WX REPORTED AS FAIR MEANS FEW OR NO CLOUDS BELOW
12 THOUSAND FEET.




USA.gov is the U.S. government's official web portal to all federal, state and local government web resources and services.